TimeCST,TemperatureF,Dew PointF,Humidity,Sea Level PressureIn,VisibilityMPH,Wind Direction,Wind SpeedMPH,Gust SpeedMPH,PrecipitationIn,Events,Conditions,WindDirDegrees,DateUTC
12:53 AM,18.0,15.1,88,30.42,10.0,Calm,Calm,-,N/A,,Overcast,0,2013-01-18 06:53:00
1:53 AM,19.0,16.0,88,30.41,10.0,Calm,Calm,-,N/A,,Overcast,0,2013-01-18 07:53:00
2:53 AM,19.9,16.0,85,30.38,9.0,Calm,Calm,-,N/A,,Overcast,0,2013-01-18 08:53:00
3:53 AM,21.9,17.1,82,30.34,10.0,Calm,Calm,-,0.00,,Overcast,0,2013-01-18 09:53:00
4:53 AM,23.0,17.1,78,30.32,10.0,Calm,Calm,-,N/A,,Overcast,0,2013-01-18 10:53:00
5:53 AM,25.0,16.0,69,30.27,10.0,Variable,6.9,-,N/A,,Overcast,0,2013-01-18 11:53:00
6:53 AM,27.0,18.0,69,30.22,10.0,Calm,Calm,-,N/A,,Overcast,0,2013-01-18 12:53:00
7:53 AM,28.9,19.9,69,30.17,10.0,South,4.6,-,N/A,,Clear,180,2013-01-18 13:53:00
8:53 AM,30.9,21.9,69,30.14,10.0,South,8.1,-,N/A,,Clear,190,2013-01-18 14:53:00
9:53 AM,36.0,25.0,64,30.09,10.0,SSW,16.1,20.7,N/A,,Clear,200,2013-01-18 15:53:00
10:53 AM,37.9,27.0,65,30.04,10.0,SSW,13.8,23.0,N/A,,Clear,200,2013-01-18 16:53:00
11:53 AM,41.0,28.0,60,29.97,10.0,SSW,11.5,21.9,N/A,,Clear,200,2013-01-18 17:53:00
12:53 PM,45.0,28.9,53,29.90,10.0,SSW,17.3,25.3,N/A,,Clear,210,2013-01-18 18:53:00
1:53 PM,48.0,30.0,50,29.88,10.0,SW,19.6,31.1,N/A,,Clear,220,2013-01-18 19:53:00
2:53 PM,50.0,30.9,48,29.86,10.0,SW,13.8,24.2,N/A,,Clear,220,2013-01-18 20:53:00
3:53 PM,50.0,30.9,48,29.85,10.0,SW,15.0,20.7,N/A,,Clear,220,2013-01-18 21:53:00
4:53 PM,46.9,30.9,54,29.83,10.0,SSW,8.1,-,N/A,,Clear,210,2013-01-18 22:53:00
5:53 PM,44.1,30.9,60,29.84,10.0,WSW,3.5,-,N/A,,Clear,240,2013-01-18 23:53:00
6:53 PM,45.0,32.0,60,29.85,10.0,SW,10.4,-,N/A,,Clear,220,2013-01-19 00:53:00
7:53 PM,44.1,33.1,65,29.85,10.0,SW,8.1,-,N/A,,Clear,230,2013-01-19 01:53:00
8:53 PM,42.1,32.0,67,29.86,10.0,SW,9.2,-,N/A,,Clear,220,2013-01-19 02:53:00
9:53 PM,39.9,32.0,73,29.86,10.0,SSW,8.1,-,N/A,,Clear,200,2013-01-19 03:53:00
10:53 PM,39.0,30.9,73,29.86,10.0,SW,6.9,-,N/A,,Clear,220,2013-01-19 04:53:00
11:53 PM,37.9,30.9,76,29.86,10.0,SSW,6.9,-,N/A,,Clear,200,2013-01-19 05:53:00